Time,TemperatureF,DewpointF,PressureIn,WindDirection,WindDirectionDegrees,WindSpeedMPH,WindSpeedGustMPH,Humidity,HourlyPrecipIn,Conditions,Clouds,dailyrainin,SoftwareType,DateUTC
2013-01-10 00:01:00,37.0,16.0,29.47,ENE,78,9.0,21.0,42,0.00,,,0.03,,2013-01-10 07:01:00,
2013-01-10 00:11:00,37.0,16.0,29.47,ENE,78,9.0,21.0,42,0.00,,,0.03,,2013-01-10 07:11:00,
2013-01-10 00:22:00,36.0,16.0,29.48,ENE,58,6.0,14.0,43,0.00,,,0.03,,2013-01-10 07:22:00,
2013-01-10 00:32:00,36.0,16.0,29.44,ESE,104,5.0,18.0,43,0.00,,,0.03,,2013-01-10 07:32:00,
2013-01-10 00:42:00,36.0,16.0,29.44,ESE,104,5.0,18.0,43,0.00,,,0.03,,2013-01-10 07:42:00,
2013-01-10 00:52:00,37.0,16.0,29.43,East,84,9.0,17.0,42,0.00,,,0.03,,2013-01-10 07:52:00,
2013-01-10 01:01:00,36.0,16.0,29.42,SSW,210,5.0,12.0,44,0.00,,,0.03,,2013-01-10 08:01:00,
2013-01-10 01:11:00,36.0,16.0,29.42,SSW,210,5.0,12.0,44,0.00,,,0.03,,2013-01-10 08:11:00,
2013-01-10 01:21:00,35.0,16.0,29.40,SSW,196,3.0,6.0,45,0.00,,,0.03,,2013-01-10 08:21:00,
2013-01-10 01:32:00,35.0,16.0,29.40,WSW,244,2.0,6.0,46,0.00,,,0.03,,2013-01-10 08:32:00,
2013-01-10 01:42:00,35.0,16.0,29.40,WSW,244,2.0,6.0,46,0.00,,,0.03,,2013-01-10 08:42:00,
2013-01-10 01:52:00,35.0,16.0,29.39,SSE,160,3.0,12.0,46,0.00,,,0.03,,2013-01-10 08:52:00,
2013-01-10 02:02:00,35.0,16.0,29.38,SSE,159,9.0,17.0,46,0.00,,,0.03,,2013-01-10 09:02:00,
2013-01-10 02:12:00,35.0,16.0,29.38,SSE,159,9.0,17.0,46,0.00,,,0.03,,2013-01-10 09:12:00,
2013-01-10 02:22:00,36.0,16.0,29.36,ESE,115,12.0,18.0,43,0.00,,,0.03,,2013-01-10 09:22:00,
2013-01-10 02:32:00,36.0,16.0,29.35,SE,130,11.0,22.0,43,0.00,,,0.03,,2013-01-10 09:32:00,
2013-01-10 02:42:00,36.0,16.0,29.35,SE,130,11.0,22.0,43,0.00,,,0.03,,2013-01-10 09:42:00,
2013-01-10 02:52:00,35.0,16.0,29.34,ESE,114,16.0,26.0,46,0.00,,,0.03,,2013-01-10 09:52:00,
2013-01-10 03:02:00,35.0,17.0,29.33,ENE,69,18.0,26.0,47,0.00,,,0.03,,2013-01-10 10:02:00,
2013-01-10 03:11:00,35.0,17.0,29.33,ENE,69,18.0,26.0,47,0.00,,,0.03,,2013-01-10 10:11:00,
2013-01-10 03:22:00,37.0,17.0,29.33,ESE,121,12.0,21.0,43,0.00,,,0.03,,2013-01-10 10:22:00,
2013-01-10 03:32:00,37.0,17.0,29.33,East,86,5.0,16.0,44,0.00,,,0.03,,2013-01-10 10:32:00,
2013-01-10 03:42:00,37.0,17.0,29.33,East,86,5.0,16.0,44,0.00,,,0.03,,2013-01-10 10:42:00,
2013-01-10 03:52:00,37.0,16.0,29.32,East,86,2.0,5.0,41,0.00,,,0.03,,2013-01-10 10:52:00,
2013-01-10 04:02:00,36.0,17.0,29.31,NW,325,5.0,8.0,45,0.00,,,0.03,,2013-01-10 11:02:00,
2013-01-10 04:12:00,36.0,17.0,29.31,NW,325,5.0,8.0,45,0.00,,,0.03,,2013-01-10 11:12:00,
2013-01-10 04:22:00,35.0,18.0,29.34,West,260,4.0,5.0,49,0.00,,,0.03,,2013-01-10 11:22:00,
2013-01-10 04:32:00,36.0,16.0,29.31,ESE,121,4.0,12.0,44,0.00,,,0.03,,2013-01-10 11:32:00,
2013-01-10 04:42:00,36.0,16.0,29.31,ESE,121,4.0,12.0,44,0.00,,,0.03,,2013-01-10 11:42:00,
2013-01-10 04:52:00,37.0,16.0,29.30,SSE,154,7.0,12.0,42,0.00,,,0.03,,2013-01-10 11:52:00,
2013-01-10 05:02:00,37.0,15.0,29.29,ENE,66,4.0,8.0,40,0.00,,,0.03,,2013-01-10 12:02:00,
2013-01-10 05:11:00,37.0,15.0,29.29,ENE,66,4.0,8.0,40,0.00,,,0.03,,2013-01-10 12:11:00,
2013-01-10 05:22:00,36.0,15.0,29.29,SE,145,2.0,10.0,42,0.00,,,0.03,,2013-01-10 12:22:00,
2013-01-10 05:32:00,35.0,18.0,29.29,WSW,251,3.0,8.0,49,0.00,,,0.03,,2013-01-10 12:32:00,
2013-01-10 05:42:00,35.0,18.0,29.29,WSW,251,3.0,8.0,49,0.00,,,0.03,,2013-01-10 12:42:00,
2013-01-10 05:53:00,38.0,16.0,29.24,ESE,103,12.0,20.0,41,0.00,,,0.03,,2013-01-10 12:53:00,
2013-01-10 06:01:00,38.0,17.0,29.22,East,97,13.0,20.0,42,0.00,,,0.03,,2013-01-10 13:01:00,
2013-01-10 06:11:00,38.0,17.0,29.22,East,97,13.0,20.0,42,0.00,,,0.03,,2013-01-10 13:11:00,
2013-01-10 06:22:00,38.0,17.0,29.23,ESE,116,13.0,20.0,42,0.00,,,0.03,,2013-01-10 13:22:00,
2013-01-10 06:32:00,44.0,14.0,29.18,ESE,123,19.0,29.0,29,0.00,,,0.03,,2013-01-10 13:32:00,
2013-01-10 06:42:00,44.0,14.0,29.18,ESE,123,19.0,29.0,29,0.00,,,0.03,,2013-01-10 13:42:00,
2013-01-10 06:52:00,46.0,15.0,29.15,ESE,106,16.0,36.0,28,0.00,,,0.03,,2013-01-10 13:52:00,
2013-01-10 07:02:00,42.0,18.0,29.18,ESE,106,10.0,17.0,37,0.00,,,0.03,,2013-01-10 14:02:00,
2013-01-10 07:11:00,42.0,18.0,29.18,ESE,106,10.0,17.0,37,0.00,,,0.03,,2013-01-10 14:11:00,
2013-01-10 07:22:00,39.0,17.0,29.22,ESE,114,16.0,20.0,41,0.00,,,0.03,,2013-01-10 14:22:00,
2013-01-10 07:32:00,39.0,17.0,29.21,ESE,115,16.0,26.0,40,0.00,,,0.03,,2013-01-10 14:32:00,
2013-01-10 07:42:00,39.0,17.0,29.21,ESE,115,16.0,26.0,40,0.00,,,0.03,,2013-01-10 14:42:00,
2013-01-10 07:53:00,38.0,17.0,29.21,ESE,103,18.0,21.0,42,0.00,,,0.03,,2013-01-10 14:53:00,
2013-01-10 08:02:00,37.0,17.0,29.21,ESE,102,17.0,25.0,43,0.00,,,0.03,,2013-01-10 15:02:00,
2013-01-10 08:12:00,37.0,17.0,29.21,ESE,102,17.0,25.0,43,0.00,,,0.03,,2013-01-10 15:12:00,
2013-01-10 08:22:00,37.0,16.0,29.22,ESE,118,17.0,26.0,42,0.00,,,0.03,,2013-01-10 15:22:00,
2013-01-10 08:32:00,36.0,16.0,29.22,ESE,104,16.0,22.0,43,0.00,,,0.03,,2013-01-10 15:32:00,
2013-01-10 08:42:00,36.0,16.0,29.22,ESE,104,16.0,22.0,43,0.00,,,0.03,,2013-01-10 15:42:00,
2013-01-10 08:53:00,36.0,16.0,29.22,ESE,102,16.0,22.0,43,0.00,,,0.03,,2013-01-10 15:53:00,
2013-01-10 09:02:00,36.0,16.0,29.22,East,99,17.0,22.0,43,0.00,,,0.03,,2013-01-10 16:02:00,
2013-01-10 09:12:00,36.0,16.0,29.22,East,99,17.0,22.0,43,0.00,,,0.03,,2013-01-10 16:12:00,
2013-01-10 09:22:00,37.0,16.0,29.22,SE,132,16.0,24.0,41,0.00,,,0.03,,2013-01-10 16:22:00,
2013-01-10 09:32:00,37.0,16.0,29.21,ESE,119,17.0,30.0,42,0.00,,,0.03,,2013-01-10 16:32:00,
2013-01-10 09:42:00,37.0,16.0,29.21,ESE,119,17.0,30.0,42,0.00,,,0.03,,2013-01-10 16:42:00,
2013-01-10 09:53:00,38.0,16.0,29.20,ESE,109,17.0,22.0,41,0.00,,,0.03,,2013-01-10 16:53:00,
2013-01-10 10:02:00,38.0,16.0,29.20,ESE,114,12.0,20.0,40,0.00,,,0.03,,2013-01-10 17:02:00,
2013-01-10 10:11:00,38.0,16.0,29.20,ESE,114,12.0,20.0,40,0.00,,,0.03,,2013-01-10 17:11:00,
2013-01-10 10:22:00,38.0,16.0,29.18,East,98,12.0,21.0,40,0.00,,,0.03,,2013-01-10 17:22:00,
2013-01-10 10:33:00,39.0,17.0,29.18,ESE,112,15.0,20.0,40,0.00,,,0.03,,2013-01-10 17:33:00,
2013-01-10 10:42:00,39.0,17.0,29.18,ESE,112,15.0,20.0,40,0.00,,,0.03,,2013-01-10 17:42:00,
2013-01-10 10:53:00,39.0,17.0,29.17,ESE,114,15.0,20.0,40,0.00,,,0.03,,2013-01-10 17:53:00,
2013-01-10 11:02:00,39.0,17.0,29.17,ESE,110,16.0,20.0,40,0.00,,,0.03,,2013-01-10 18:02:00,
2013-01-10 11:12:00,38.0,17.0,29.18,ESE,117,16.0,24.0,42,0.00,,,0.03,,2013-01-10 18:12:00,
2013-01-10 11:22:00,38.0,17.0,29.18,ESE,117,16.0,24.0,42,0.00,,,0.03,,2013-01-10 18:22:00,
2013-01-10 11:32:00,38.0,18.0,29.18,ENE,71,18.0,25.0,44,0.00,,,0.03,,2013-01-10 18:32:00,
2013-01-10 11:43:00,39.0,16.0,29.18,ESE,110,16.0,21.0,39,0.00,,,0.03,,2013-01-10 18:43:00,
2013-01-10 11:53:00,39.0,16.0,29.18,ESE,110,16.0,21.0,39,0.00,,,0.03,,2013-01-10 18:53:00,
2013-01-10 12:02:00,41.0,14.0,29.16,ESE,117,15.0,22.0,33,0.00,,,0.03,,2013-01-10 19:02:00,
2013-01-10 12:12:00,41.0,15.0,29.15,East,98,6.0,12.0,34,0.00,,,0.03,,2013-01-10 19:12:00,
2013-01-10 12:22:00,41.0,15.0,29.15,East,98,6.0,12.0,34,0.00,,,0.03,,2013-01-10 19:22:00,
2013-01-10 12:32:00,39.0,17.0,29.15,ESE,116,14.0,22.0,40,0.00,,,0.03,,2013-01-10 19:32:00,
2013-01-10 12:42:00,39.0,17.0,29.15,ESE,116,14.0,22.0,40,0.00,,,0.03,,2013-01-10 19:42:00,
2013-01-10 12:53:00,38.0,16.0,29.14,ESE,113,8.0,12.0,41,0.00,,,0.03,,2013-01-10 19:53:00,
2013-01-10 13:02:00,38.0,17.0,29.13,East,98,5.0,10.0,42,0.00,,,0.03,,2013-01-10 20:02:00,
2013-01-10 13:11:00,37.0,18.0,29.10,West,270,4.0,12.0,46,0.00,,,0.03,,2013-01-10 20:11:00,
2013-01-10 13:22:00,37.0,18.0,29.10,West,270,4.0,12.0,46,0.00,,,0.03,,2013-01-10 20:22:00,
2013-01-10 13:32:00,37.0,17.0,29.13,East,99,6.0,18.0,44,0.00,,,0.03,,2013-01-10 20:32:00,
2013-01-10 13:42:00,37.0,17.0,29.13,East,99,6.0,18.0,44,0.00,,,0.03,,2013-01-10 20:42:00,
2013-01-10 13:53:00,33.0,23.0,29.14,ESE,109,13.0,26.0,65,0.00,,,0.03,,2013-01-10 20:53:00,
2013-01-10 14:02:00,31.0,25.0,29.16,ESE,116,15.0,22.0,79,0.00,,,0.03,,2013-01-10 21:02:00,
2013-01-10 14:12:00,30.0,26.0,29.15,ESE,121,7.0,10.0,85,0.00,,,0.03,,2013-01-10 21:12:00,
2013-01-10 14:22:00,30.0,26.0,29.15,ESE,121,7.0,10.0,85,0.00,,,0.03,,2013-01-10 21:22:00,
2013-01-10 14:32:00,30.0,27.0,29.16,ESE,115,5.0,10.0,87,0.00,,,0.03,,2013-01-10 21:32:00,
2013-01-10 14:42:00,30.0,27.0,29.16,ESE,115,5.0,10.0,87,0.00,,,0.03,,2013-01-10 21:42:00,
2013-01-10 14:53:00,30.0,27.0,29.17,ESE,103,0.0,0.0,87,0.00,,,0.03,,2013-01-10 21:53:00,
2013-01-10 15:02:00,29.0,26.0,29.17,SSW,208,0.0,0.0,87,0.00,,,0.03,,2013-01-10 22:02:00,
2013-01-10 15:12:00,29.0,26.0,29.17,SSW,208,0.0,0.0,88,0.00,,,0.03,,2013-01-10 22:12:00,
2013-01-10 15:22:00,29.0,26.0,29.17,SSW,208,0.0,0.0,88,0.00,,,0.03,,2013-01-10 22:22:00,
2013-01-10 15:32:00,28.0,25.0,29.18,SSW,208,0.0,0.0,87,0.00,,,0.03,,2013-01-10 22:32:00,
2013-01-10 15:42:00,28.0,25.0,29.18,SSW,208,0.0,0.0,87,0.00,,,0.03,,2013-01-10 22:42:00,
2013-01-10 16:02:00,28.0,25.0,29.18,SSW,206,0.0,0.0,87,0.00,,,0.03,,2013-01-10 23:02:00,
2013-01-10 16:12:00,28.0,25.0,29.15,SSW,208,0.0,0.0,88,0.00,,,0.03,,2013-01-10 23:12:00,
2013-01-10 16:22:00,28.0,25.0,29.15,SSW,208,0.0,0.0,88,0.00,,,0.03,,2013-01-10 23:22:00,
2013-01-10 16:32:00,26.0,23.0,29.16,WNW,288,0.0,0.0,87,0.00,,,0.03,,2013-01-10 23:32:00,
2013-01-10 16:42:00,26.0,23.0,29.16,WNW,288,0.0,0.0,87,0.00,,,0.03,,2013-01-10 23:42:00,
2013-01-10 16:53:00,26.0,23.0,29.16,WNW,288,0.0,0.0,87,0.00,,,0.03,,2013-01-10 23:53:00,
2013-01-10 17:02:00,25.0,21.0,29.18,West,281,0.0,0.0,86,0.00,,,0.03,,2013-01-11 00:02:00,
2013-01-10 17:12:00,23.0,19.0,29.18,WSW,245,4.0,8.0,85,0.00,,,0.03,,2013-01-11 00:12:00,
2013-01-10 17:22:00,23.0,19.0,29.18,WSW,245,4.0,8.0,85,0.00,,,0.03,,2013-01-11 00:22:00,
2013-01-10 17:32:00,23.0,19.0,29.18,WSW,258,2.0,7.0,85,0.00,,,0.03,,2013-01-11 00:32:00,
2013-01-10 17:42:00,23.0,19.0,29.18,WSW,258,2.0,7.0,85,0.00,,,0.03,,2013-01-11 00:42:00,
2013-01-10 17:52:00,22.0,18.0,29.19,WSW,254,5.0,9.0,85,0.00,,,0.03,,2013-01-11 00:52:00,
2013-01-10 18:02:00,22.0,18.0,29.19,WSW,255,1.0,6.0,86,0.00,,,0.02,,2013-01-11 01:02:00,
2013-01-10 18:12:00,22.0,18.0,29.19,WSW,252,4.0,10.0,86,0.00,,,0.02,,2013-01-11 01:12:00,
2013-01-10 18:22:00,22.0,18.0,29.19,WSW,252,4.0,10.0,86,0.00,,,0.02,,2013-01-11 01:22:00,
2013-01-10 18:32:00,22.0,18.0,29.18,WSW,249,5.0,12.0,86,0.00,,,0.02,,2013-01-11 01:32:00,
2013-01-10 18:42:00,22.0,18.0,29.18,WSW,249,5.0,12.0,86,0.00,,,0.02,,2013-01-11 01:42:00,
2013-01-10 18:53:00,22.0,18.0,29.19,WSW,251,8.0,12.0,86,0.00,,,0.00,,2013-01-11 01:53:00,
2013-01-10 19:02:00,21.0,17.0,29.19,WSW,258,6.0,12.0,85,0.00,,,0.00,,2013-01-11 02:02:00,
2013-01-10 19:12:00,21.0,17.0,29.22,WSW,254,5.0,17.0,85,0.00,,,0.00,,2013-01-11 02:12:00,
2013-01-10 19:22:00,21.0,17.0,29.22,WSW,254,5.0,17.0,85,0.00,,,0.00,,2013-01-11 02:22:00,
2013-01-10 19:32:00,20.0,16.0,29.22,West,260,6.0,13.0,85,0.00,,,0.00,,2013-01-11 02:32:00,
2013-01-10 19:42:00,20.0,16.0,29.22,West,260,6.0,13.0,85,0.00,,,0.00,,2013-01-11 02:42:00,
2013-01-10 19:53:00,20.0,16.0,29.23,West,270,5.0,12.0,85,0.00,,,0.00,,2013-01-11 02:53:00,
2013-01-10 20:02:00,20.0,16.0,29.23,WNW,286,2.0,8.0,85,0.00,,,0.00,,2013-01-11 03:02:00,
2013-01-10 20:11:00,20.0,16.0,29.21,West,263,5.0,12.0,85,0.00,,,0.00,,2013-01-11 03:11:00,
2013-01-10 20:22:00,20.0,16.0,29.21,West,263,5.0,12.0,85,0.00,,,0.00,,2013-01-11 03:22:00,
2013-01-10 20:32:00,19.0,15.0,29.22,WSW,256,3.0,8.0,85,0.00,,,0.00,,2013-01-11 03:32:00,
2013-01-10 20:42:00,19.0,15.0,29.22,WSW,256,3.0,8.0,85,0.00,,,0.00,,2013-01-11 03:42:00,
2013-01-10 20:53:00,19.0,15.0,29.23,West,263,6.0,14.0,85,0.00,,,0.00,,2013-01-11 03:53:00,
2013-01-10 21:01:00,19.0,15.0,29.25,SW,224,6.0,13.0,84,0.00,,,0.00,,2013-01-11 04:01:00,
2013-01-10 21:11:00,19.0,15.0,29.25,WNW,291,3.0,14.0,84,0.00,,,0.00,,2013-01-11 04:11:00,
2013-01-10 21:22:00,19.0,15.0,29.25,WNW,291,3.0,14.0,84,0.00,,,0.00,,2013-01-11 04:22:00,
2013-01-10 21:32:00,19.0,15.0,29.25,NW,322,3.0,8.0,85,0.00,,,0.00,,2013-01-11 04:32:00,
2013-01-10 21:42:00,19.0,15.0,29.25,NW,322,3.0,8.0,85,0.00,,,0.00,,2013-01-11 04:42:00,
2013-01-10 21:52:00,19.0,15.0,29.25,WSW,257,2.0,7.0,84,0.00,,,0.00,,2013-01-11 04:52:00,
2013-01-10 22:03:00,18.0,14.0,29.24,West,274,1.0,6.0,84,0.00,,,0.00,,2013-01-11 05:03:00,
2013-01-10 22:12:00,18.0,14.0,29.24,West,274,1.0,6.0,84,0.00,,,0.00,,2013-01-11 05:12:00,
2013-01-10 22:22:00,18.0,14.0,29.24,WNW,290,2.0,3.0,84,0.00,,,0.00,,2013-01-11 05:22:00,
2013-01-10 22:32:00,18.0,14.0,29.24,NW,309,5.0,12.0,83,0.00,,,0.00,,2013-01-11 05:32:00,
2013-01-10 22:42:00,18.0,14.0,29.24,NW,309,5.0,12.0,83,0.00,,,0.00,,2013-01-11 05:42:00,
2013-01-10 22:52:00,18.0,14.0,29.24,West,277,2.0,7.0,83,0.00,,,0.00,,2013-01-11 05:52:00,
2013-01-10 23:02:00,18.0,14.0,29.24,WNW,302,3.0,12.0,83,0.00,,,0.00,,2013-01-11 06:02:00,
2013-01-10 23:11:00,18.0,14.0,29.24,WNW,302,3.0,12.0,83,0.00,,,0.00,,2013-01-11 06:11:00,
2013-01-10 23:22:00,17.0,13.0,29.22,WSW,244,9.0,14.0,83,0.00,,,0.00,,2013-01-11 06:22:00,
2013-01-10 23:32:00,17.0,13.0,29.23,West,267,5.0,16.0,83,0.00,,,0.00,,2013-01-11 06:32:00,
2013-01-10 23:42:00,17.0,13.0,29.23,West,267,5.0,16.0,83,0.00,,,0.00,,2013-01-11 06:42:00,
2013-01-10 23:52:00,17.0,13.0,29.23,WNW,282,4.0,14.0,83,0.00,,,0.00,,2013-01-11 06:52:00,